Theta_e
300 297 292 293 294 295 295 293 292 296 297 296 295 296 308 310 310 310 311 313 315 316 319 320 322 323 323 322 321 320 320 320 318 317 314 312 311 314 316 320 323 323 323 324
297 293 297 299 299 297 295 292 291 295 297 294 295 294 302 306 307 309 311 312 313 314 316 319 320 321 322 320 321 321 320 320 318 315 314 313 312 313 316 319 321 322 323 323
295 297 301 301 298 297 293 292 292 293 295 293 291 289 295 302 305 309 311 312 313 314 314 316 318 319 320 319 320 321 320 319 319 314 313 311 311 311 310 312 314 317 321 323
297 300 300 298 297 296 290 297 296 295 291 287 290 283 288 295 300 306 308 308 310 311 312 312 314 315 318 319 320 320 319 317 315 315 313 310 307 305 306 307 310 311 314 318
298 298 297 296 296 298 295 298 293 293 288 285 288 284 286 296 297 300 302 306 307 308 308 308 307 310 309 307 309 314 313 311 309 309 309 308 308 308 309 309 309 311 312 312
298 302 300 299 300 298 297 293 290 288 286 282 285 286 287 292 296 298 302 304 304 302 302 303 304 304 303 304 303 303 304 304 305 306 307 306 306 305 305 305 305 307 308 310
298 298 301 303 298 298 294 288 282 281 281 282 287 289 290 295 298 300 301 302 300 301 299 300 300 300 303 303 303 304 303 303 304 305 305 304 304 303 303 304 304 305 306 307
292 291 299 302 297 292 289 288 283 279 279 282 288 286 291 298 299 300 300 300 301 298 296 298 299 300 301 302 302 303 302 302 302 302 302 303 302 301 302 302 303 304 304 306
291 293 301 300 298 297 291 287 289 285 283 282 284 290 297 298 297 298 299 300 295 295 296 297 299 300 300 301 302 301 301 301 301 301 301 301 302 302 301 302 303 302 303 304
296 290 298 301 299 297 291 294 286 285 280 280 283 284 288 294 296 297 296 294 295 295 296 296 298 300 300 301 301 301 301 300 301 301 301 302 301 301 301 301 300 301 302 302
297 293 293 298 293 292 291 290 287 287 285 280 280 283 291 293 295 295 294 294 294 295 296 296 296 298 300 300 300 300 300 300 300 301 300 300 300 300 300 300 301 301 301 302
298 292 289 293 297 298 293 289 288 284 283 283 282 284 294 293 294 295 295 295 295 296 297 297 295 298 299 299 300 300 300 300 300 301 300 299 300 300 299 300 301 302 301 302
297 289 282 285 289 295 293 293 290 287 285 283 280 285 295 296 295 295 294 294 296 297 297 296 298 299 299 299 300 300 300 300 300 300 299 299 299 300 300 300 302 302 302 302
303 291 287 282 286 292 292 294 293 290 281 285 285 288 292 293 294 295 295 295 295 296 296 296 297 298 298 299 299 300 300 300 300 299 299 298 300 301 301 302 302 302 303 302
294 289 291 292 294 295 294 294 294 290 290 286 289 288 291 292 293 295 295 295 296 296 297 297 298 298 298 298 299 300 299 300 300 298 298 298 301 302 302 303 303 303 303 303
294 290 291 291 296 295 294 296 295 294 293 291 291 290 294 295 295 295 296 296 295 295 297 299 298 298 298 298 298 298 298 299 300 298 298 299 301 302 302 303 303 304 304 304
293 291 289 286 293 293 285 291 294 294 293 292 288 291 294 295 296 296 295 295 295 296 298 298 298 297 297 297 297 296 298 300 299 299 299 300 301 302 302 303 304 303 303 304
292 290 288 286 288 282 290 296 298 296 294 294 294 294 296 296 297 297 296 294 295 297 298 297 297 296 296 297 297 297 298 300 299 298 300 301 301 301 302 303 303 304 305 304
295 291 286 284 283 289 294 296 293 291 293 296 295 296 297 298 296 296 297 297 297 297 298 297 297 296 296 296 296 296 298 299 299 299 299 301 301 301 302 302 304 304 303 303
295 292 289 285 283 283 292 298 300 297 287 298 298 297 297 296 290 292 298 299 299 298 298 297 297 296 295 296 296 296 298 298 298 299 300 301 302 302 302 303 305 304 304 303
289 288 286 284 284 289 296 300 300 288 291 298 299 298 297 294 296 297 298 298 298 298 298 298 296 295 295 296 295 296 298 298 300 301 301 302 302 302 304 305 305 304 304 303
290 286 285 285 284 285 300 298 293 297 296 299 299 298 298 297 297 298 297 297 298 297 297 296 295 294 295 295 295 297 297 300 301 301 301 301 302 303 304 304 305 304 303 302
290 294 290 290 290 297 300 299 300 299 299 300 299 300 299 298 296 296 297 297 297 297 295 295 294 294 294 295 296 297 298 300 301 300 300 300 302 303 303 304 304 303 303 300
295 297 295 294 298 298 301 302 301 301 301 302 302 300 299 297 297 296 297 296 296 295 294 294 294 293 293 295 296 297 299 300 300 299 300 301 301 301 303 304 305 304 302 300
295 296 294 293 297 297 300 302 303 303 303 301 300 299 299 297 296 296 297 296 296 295 294 294 293 292 293 295 297 299 300 300 299 299 300 300 300 301 302 304 304 303 303 298
296 295 293 292 298 298 299 302 304 303 302 301 299 298 299 298 297 298 296 296 295 294 294 293 293 293 294 296 298 299 300 300 299 299 299 299 299 301 302 303 304 300 297 296
Wind_Speed
5 9 2 1 3 5 5 4 3 3 4 2 4 5 18 12 7 7 5 5 6 7 6 6 6 5 5 4 3 3 3 4 1 2 3 3 3 3 2 3 3 3 4 4
8 3 2 7 6 7 4 3 2 5 3 3 6 2 5 6 3 6 6 6 7 5 7 7 6 6 5 3 3 5 6 6 5 3 2 2 2 2 3 3 4 5 5 5
7 3 5 2 3 4 1 3 2 5 5 3 4 4 3 2 4 7 6 5 4 8 8 7 6 7 5 5 6 7 7 7 6 5 4 4 3 3 4 4 4 4 6 5
5 2 2 5 3 3 2 3 2 4 2 2 3 4 0 2 3 8 8 6 7 7 6 5 7 7 7 8 5 7 7 6 5 6 4 3 2 3 3 4 4 8 6 8
2 5 3 4 2 2 4 4 3 2 2 4 6 5 5 3 3 5 7 7 8 8 8 9 9 6 4 4 5 3 4 5 5 5 3 3 4 3 3 5 6 7 7 6
1 3 2 5 2 3 3 1 6 5 4 4 2 4 5 2 6 5 5 8 7 5 4 2 2 3 5 5 5 5 5 3 4 4 4 4 6 8 7 7 8 8 7 8
5 3 4 2 2 3 9 8 6 7 7 4 4 2 7 4 4 5 9 7 6 5 2 3 5 4 1 3 4 3 6 6 7 7 7 7 8 8 8 8 8 10 8 7
3 5 2 2 3 2 4 5 6 2 1 6 4 2 5 3 3 5 5 7 4 4 3 2 0 2 1 4 4 4 4 6 7 7 7 6 6 4 6 6 7 7 6 7
4 3 4 2 2 5 2 0 3 7 2 2 4 5 6 3 3 3 5 5 4 2 3 1 1 2 3 3 4 4 6 7 6 6 6 7 8 9 9 10 8 7 9 8
3 1 1 3 2 6 2 5 4 4 0 3 5 5 6 5 8 3 4 3 1 2 1 3 5 4 3 4 4 6 6 7 5 6 8 9 9 9 9 8 10 10 9 9
4 5 5 2 0 4 3 2 6 5 5 5 3 7 5 7 7 7 5 2 2 1 2 6 6 4 4 5 6 7 6 6 8 9 10 10 10 9 9 9 11 10 10 10
2 5 3 7 2 2 1 1 5 7 3 1 3 9 2 3 4 6 5 2 1 2 5 5 5 4 6 7 7 8 5 6 8 9 11 11 10 10 10 11 11 10 10 10
5 2 4 9 7 4 5 2 5 5 3 6 6 8 1 2 2 2 2 3 3 5 7 5 5 6 6 8 8 8 6 9 10 10 11 12 11 11 11 11 12 11 11 11
7 3 7 7 7 3 5 2 2 5 4 4 7 6 6 6 5 4 4 4 5 6 5 5 6 7 7 8 9 8 9 9 11 12 12 12 12 12 12 12 13 12 11 11
5 3 4 5 5 3 5 6 4 7 6 6 7 7 6 8 7 6 4 4 6 6 7 6 6 7 9 8 9 9 9 11 12 11 12 13 13 13 13 13 12 12 11 10
2 2 2 3 3 1 5 9 8 8 5 7 4 7 5 4 3 3 7 5 6 7 7 7 7 9 9 10 11 9 10 12 11 11 12 13 13 13 13 13 13 12 11 10
3 6 3 5 4 5 4 4 3 3 3 5 4 7 5 5 5 5 7 6 7 7 6 7 8 7 8 9 9 9 12 12 12 11 13 12 15 14 14 13 13 12 11 10
6 5 2 3 4 2 7 3 5 5 3 5 3 3 6 6 4 5 5 5 7 6 6 7 7 6 8 7 9 10 10 11 11 11 12 13 13 14 14 14 13 11 9 8
3 5 3 3 2 7 6 1 2 3 8 8 7 6 4 2 2 6 7 6 5 3 5 6 5 4 7 8 8 9 12 11 11 12 12 13 14 14 14 14 14 10 8 7
5 6 5 3 2 5 7 2 3 4 6 7 7 8 6 4 2 6 4 4 3 3 3 5 6 5 7 8 6 9 9 10 11 12 13 13 14 14 14 14 12 9 9 8
2 2 5 3 4 8 9 5 3 6 11 5 8 7 8 6 7 3 3 3 2 2 5 6 5 6 7 7 6 9 10 10 12 13 13 13 14 13 13 12 10 9 9 8
9 7 5 3 2 8 7 5 9 10 3 4 6 6 7 5 3 4 4 4 3 4 5 6 5 7 7 6 6 10 12 12 12 12 13 14 14 12 10 13 9 9 7 8
2 9 8 10 10 5 7 6 5 4 5 6 6 5 6 6 6 5 4 5 3 4 5 4 5 7 7 6 5 9 12 12 12 12 12 13 14 12 12 12 10 8 6 5
4 4 3 3 6 8 9 6 5 6 6 4 5 7 8 6 6 5 4 3 3 3 5 4 5 7 8 7 7 8 11 12 12 12 12 12 12 14 12 10 8 7 6 5
6 6 6 5 7 5 6 7 8 8 6 5 5 7 9 7 5 5 4 4 4 3 4 4 5 6 8 8 8 9 11 12 11 11 10 11 10 11 11 10 8 6 5 4
5 9 6 8 8 6 7 6 5 9 11 10 9 7 5 7 7 6 5 4 2 3 3 4 5 6 8 7 8 9 11 11 11 11 9 9 9 10 9 9 8 9 8 10
Wind_Direction
10 69 78 318 91 109 101 83 26 308 16 322 226 180 177 170 162 169 183 194 202 224 274 272 280 273 241 239 235 266 276 255 281 284 259 264 257 286 309 298 274 232 219 212
32 63 150 119 92 97 79 100 333 293 313 50 4 73 153 154 151 155 179 215 215 232 253 253 263 264 261 335 283 276 271 266 254 238 260 264 269 288 277 271 267 259 244 232
120 164 169 92 64 68 81 134 253 225 341 52 12 46 88 124 113 134 183 228 235 223 226 245 261 253 268 263 250 254 261 267 273 346 335 335 315 336 337 343 320 309 291 243
97 67 87 56 56 99 16 220 245 272 71 226 41 267 56 321 161 172 185 212 229 250 263 254 244 254 247 254 273 268 288 312 347 348 346 355 265 282 249 262 268 296 287 292
258 144 100 71 283 195 221 15 32 359 99 83 3 82 258 149 125 175 198 213 220 229 238 246 246 247 333 326 316 321 348 1 341 348 335 309 306 258 268 291 299 295 288 256
63 323 109 189 81 46 330 43 46 56 74 48 332 124 294 228 190 172 192 210 209 192 224 357 15 354 335 20 33 28 44 28 8 7 352 334 311 305 315 314 315 309 309 307
11 340 315 133 42 18 48 44 345 1 12 224 332 75 240 284 228 215 194 183 175 188 32 341 339 349 35 6 36 29 24 358 344 333 321 320 311 311 298 293 293 296 296 299
137 324 351 19 109 155 46 128 149 266 282 277 316 301 270 232 38 63 97 153 141 43 347 56 269 202 96 51 18 9 351 324 311 307 306 301 287 274 282 279 291 289 285 290
136 276 319 71 119 115 151 69 167 104 5 28 276 293 328 151 120 97 116 106 54 65 111 52 180 3 340 332 312 308 306 293 304 317 312 311 302 304 301 298 290 286 288 286
183 38 13 315 92 40 139 148 48 12 216 307 304 292 240 233 234 153 161 118 76 156 62 327 254 265 273 276 298 312 308 305 307 310 309 306 296 291 285 289 286 283 284 286
113 107 291 351 80 172 29 2 55 110 121 171 280 268 214 257 253 191 194 229 277 207 297 304 307 288 295 319 308 301 309 322 314 305 296 291 293 289 288 288 287 285 283 279
62 129 206 239 298 257 149 136 117 113 247 110 151 272 279 282 163 153 198 278 241 304 301 301 321 322 317 300 304 298 303 293 296 300 299 297 291 289 283 280 280 279 274 276
181 29 27 350 357 7 74 65 107 102 84 203 139 264 224 217 158 170 237 285 266 310 319 333 323 311 304 299 300 307 309 305 303 303 306 301 294 291 286 279 278 278 278 276
83 108 148 185 215 179 294 245 97 127 117 213 223 275 246 231 218 259 286 302 276 295 294 293 298 297 291 300 305 300 304 304 306 308 307 297 292 291 288 286 284 278 271 267
98 147 185 246 241 216 238 258 226 194 206 180 261 219 275 208 215 233 236 261 276 283 285 278 292 293 294 298 301 304 308 311 308 303 301 298 297 296 293 290 287 281 269 261
25 181 144 292 5 166 272 277 274 235 223 250 263 270 200 195 168 211 229 262 267 280 284 294 293 289 301 310 308 306 305 307 307 299 299 302 302 302 299 292 289 285 274 265
119 129 97 267 334 317 343 234 238 284 187 161 201 238 165 206 233 249 242 241 256 273 274 280 282 299 301 302 310 307 307 312 308 302 304 301 316 307 301 299 297 292 285 271
129 103 99 238 354 340 239 275 241 236 226 211 241 206 193 212 237 248 213 208 253 247 271 286 290 300 300 310 315 304 309 305 306 308 306 308 310 307 307 306 305 303 295 280
100 120 95 147 192 291 318 183 128 171 273 199 207 210 209 161 84 278 213 214 220 230 266 265 277 284 302 309 304 304 320 308 307 318 313 310 311 308 310 312 311 311 301 298
83 88 117 136 161 230 239 260 122 121 304 208 180 203 182 142 341 262 200 199 215 266 254 287 317 314 302 300 304 302 307 314 314 318 313 311 310 309 311 313 315 311 312 298
109 37 173 151 220 286 243 182 161 82 239 186 190 193 168 187 203 207 164 179 189 246 308 320 319 290 289 302 312 308 310 318 318 313 314 314 313 313 312 313 312 311 314 321
170 153 196 105 160 277 159 83 162 215 221 200 201 194 192 221 212 213 203 200 231 301 319 321 312 310 312 314 320 319 325 317 318 319 320 319 318 317 318 316 315 315 312 318
205 185 188 172 209 237 223 198 227 176 191 205 191 182 180 185 210 207 214 225 246 289 303 304 308 312 315 312 310 318 315 313 320 320 324 325 320 322 324 322 325 325 323 322
239 149 188 97 247 228 240 257 235 200 221 210 185 163 163 187 203 205 186 218 248 284 308 304 321 320 317 317 318 305 312 317 320 322 325 325 327 327 327 327 330 334 337 325
191 132 171 256 279 278 254 224 220 209 215 178 161 167 178 183 201 185 203 218 239 278 298 306 314 309 307 316 319 324 322 320 321 324 327 328 328 327 326 332 331 348 357 324
196 177 162 215 218 175 238 246 196 197 206 188 161 151 186 181 186 170 202 203 209 269 284 303 312 316 314 316 323 327 324 323 320 325 331 331 328 329 329 333 338 349 3 5